| time (UTC) | temp F | wind direction | speed MPH | gust MPH | rain 1hr in | rain 24hr in | rain mn in | humidity % | barometer mb |
| 20260502151534 | 61 | 302 | 3.0 | 4.0 | 0.00 | 0.38 | 0.01 | 59 | 1023.7 |
| 20260502123037 | 47 | 0 | 0.0 | 2.0 | 0.01 | 0.42 | 0.01 | 94 | 1022.2 |
| 20260502121544 | 45 | 276 | 1.0 | 2.0 | 0.01 | 0.42 | 0.01 | 95 | 1022.0 |
| 20260502114535 | 44 | 268 | 0.0 | 2.0 | 0.00 | 0.52 | 0.00 | 96 | 1021.6 |
| 20260502113036 | 43 | 274 | 1.0 | 3.0 | 0.00 | 0.52 | 0.00 | 96 | 1021.4 |
| 20260502111532 | 44 | 274 | 1.0 | 2.0 | 0.00 | 0.52 | 0.00 | 96 | 1021.1 |
| 20260502110035 | 44 | 0 | 0.0 | 0.0 | 0.00 | 0.52 | 0.00 | 96 | 1021.1 |
| 20260502104533 | 44 | 0 | 0.0 | 0.0 | 0.00 | 0.54 | 0.00 | 96 | 1020.9 |
| 20260502103039 | 44 | 0 | 0.0 | 1.0 | 0.00 | 0.54 | 0.00 | 96 | 1020.7 |
| 20260502101544 | 44 | 0 | 0.0 | 0.0 | 0.00 | 0.54 | 0.00 | 95 | 1020.5 |
| 20260502070036 | 46 | 319 | 1.0 | 3.0 | 0.00 | 0.56 | 0.00 | 96 | 1019.8 |
| 20260502064535 | 46 | 0 | 0.0 | 1.0 | 0.00 | 0.56 | 0.00 | 95 | 1019.8 |
| 20260502063034 | 47 | 0 | 0.0 | 2.0 | 0.00 | 0.56 | 0.00 | 96 | 1019.7 |
| 20260502061540 | 47 | 11 | 0.0 | 2.0 | 0.00 | 0.56 | 0.00 | 96 | 1019.8 |
| 20260502060035 | 47 | 0 | 0.0 | 2.0 | 0.00 | 0.56 | 0.00 | 96 | 1019.8 |
| 20260502054535 | 46 | 326 | 0.0 | 1.0 | 0.00 | 0.56 | 0.00 | 96 | 1019.6 |
| 20260502053034 | 47 | 0 | 0.0 | 1.0 | 0.00 | 0.56 | 0.00 | 96 | 1019.8 |
| 20260502051540 | 47 | 328 | 0.0 | 1.0 | 0.00 | 0.56 | 0.00 | 95 | 1019.7 |
| 20260502050039 | 47 | 332 | 0.0 | 1.0 | 0.00 | 0.56 | 0.00 | 95 | 1019.6 |
| 20260502044537 | 48 | 0 | 0.0 | 1.0 | 0.00 | 0.56 | 0.56 | 95 | 1019.4 |
| 20260502043035 | 48 | 0 | 0.0 | 2.0 | 0.00 | 0.56 | 0.56 | 95 | 1019.4 |
| 20260502041550 | 49 | 324 | 1.0 | 3.0 | 0.00 | 0.56 | 0.56 | 95 | 1019.1 |
| 20260502040042 | 49 | 22 | 3.0 | 5.0 | 0.00 | 0.56 | 0.56 | 95 | 1018.9 |
| 20260502034533 | 49 | 28 | 2.0 | 4.0 | 0.00 | 0.56 | 0.56 | 95 | 1018.8 |
| 20260502033049 | 50 | 0 | 0.0 | 2.0 | 0.00 | 0.56 | 0.56 | 95 | 1019.2 |
| 20260502031535 | 50 | 316 | 1.0 | 1.0 | 0.00 | 0.56 | 0.56 | 95 | 1019.1 |
| 20260502030031 | 50 | 0 | 0.0 | 1.0 | 0.00 | 0.56 | 0.56 | 95 | 1018.8 |
| 20260502024537 | 51 | 0 | 0.0 | 2.0 | 0.00 | 0.56 | 0.56 | 95 | 1018.5 |
| 20260502023037 | 51 | 333 | 0.0 | 2.0 | 0.00 | 0.56 | 0.56 | 94 | 1018.5 |
| 20260502021532 | 52 | 323 | 0.0 | 3.0 | 0.00 | 0.56 | 0.56 | 94 | 1018.1 |
| 20260502020032 | 52 | 53 | 2.0 | 4.0 | 0.00 | 0.56 | 0.56 | 93 | 1017.6 |
| 20260502014535 | 52 | 39 | 0.0 | 4.0 | 0.00 | 0.57 | 0.56 | 92 | 1017.6 |
| 20260502013037 | 52 | 30 | 1.0 | 5.0 | 0.00 | 0.57 | 0.56 | 93 | 1017.3 |
| 20260502011534 | 53 | 50 | 3.0 | 5.0 | 0.00 | 0.57 | 0.56 | 92 | 1017.2 |
| 20260502010037 | 53 | 47 | 3.0 | 10.0 | 0.00 | 0.57 | 0.56 | 92 | 1017.2 |
| 20260502004537 | 53 | 21 | 3.0 | 8.0 | 0.00 | 0.58 | 0.56 | 93 | 1017.0 |
| 20260502003037 | 52 | 39 | 3.0 | 10.0 | 0.00 | 0.58 | 0.56 | 93 | 1016.6 |
| 20260502001535 | 52 | 24 | 4.0 | 12.0 | 0.00 | 0.58 | 0.56 | 94 | 1016.3 |
| 20260502000035 | 52 | 27 | 5.0 | 12.0 | 0.00 | 0.58 | 0.56 | 95 | 1016.0 |
| 20260501234537 | 52 | 343 | 8.0 | 14.0 | 0.00 | 0.58 | 0.56 | 95 | 1015.7 |
| 20260501233035 | 53 | 51 | 4.0 | 12.0 | 0.00 | 0.58 | 0.56 | 96 | 1015.3 |
| 20260501231551 | 53 | 39 | 6.0 | 13.0 | 0.00 | 0.58 | 0.56 | 95 | 1015.1 |
| 20260501230032 | 53 | 42 | 8.0 | 16.0 | 0.00 | 0.58 | 0.56 | 95 | 1014.7 |
| 20260501224535 | 53 | 27 | 6.0 | 11.0 | 0.00 | 0.58 | 0.56 | 96 | 1014.5 |
| 20260501223053 | 53 | 46 | 7.0 | 14.0 | 0.01 | 0.58 | 0.56 | 96 | 1014.4 |
| 20260501221535 | 52 | 46 | 8.0 | 14.0 | 0.01 | 0.58 | 0.56 | 96 | 1014.3 |
| 20260501220032 | 53 | 47 | 9.0 | 14.0 | 0.01 | 0.58 | 0.56 | 95 | 1014.3 |
| 20260501214535 | 54 | 46 | 7.0 | 14.0 | 0.01 | 0.58 | 0.56 | 96 | 1014.3 |
| 20260501213036 | 52 | 42 | 8.0 | 15.0 | 0.00 | 0.58 | 0.55 | 96 | 1014.4 |
| 20260501211534 | 53 | 32 | 7.0 | 15.0 | 0.01 | 0.58 | 0.55 | 96 | 1014.3 |
| 20260501210034 | 52 | 18 | 6.0 | 15.0 | 0.04 | 0.58 | 0.55 | 96 | 1015.0 |
| 20260501204533 | 53 | 68 | 7.0 | 14.0 | 0.10 | 0.58 | 0.55 | 96 | 1015.4 |
| 20260501203035 | 53 | 19 | 8.0 | 14.0 | 0.20 | 0.58 | 0.55 | 96 | 1015.7 |
| 20260501201535 | 53 | 37 | 6.0 | 13.0 | 0.24 | 0.57 | 0.54 | 96 | 1015.7 |
| 20260501200037 | 53 | 24 | 6.0 | 12.0 | 0.21 | 0.54 | 0.51 | 96 | 1015.9 |
| 20260501194532 | 53 | 15 | 5.0 | 16.0 | 0.14 | 0.49 | 0.44 | 96 | 1015.8 |
| 20260501193035 | 53 | 355 | 4.0 | 10.0 | 0.04 | 0.39 | 0.34 | 96 | 1015.7 |
| 20260501191535 | 53 | 18 | 6.0 | 14.0 | 0.00 | 0.35 | 0.30 | 96 | 1015.1 |
| 20260501190035 | 54 | 32 | 6.0 | 12.0 | 0.00 | 0.35 | 0.30 | 96 | 1014.6 |
| 20260501184536 | 55 | 25 | 7.0 | 16.0 | 0.00 | 0.57 | 0.30 | 96 | 1014.2 |
| 20260501183036 | 56 | 30 | 10.0 | 21.0 | 0.01 | 0.57 | 0.30 | 96 | 1013.8 |
| 20260501181535 | 54 | 60 | 10.0 | 18.0 | 0.01 | 0.57 | 0.30 | 96 | 1013.8 |
| 20260501180038 | 56 | 27 | 9.0 | 13.0 | 0.02 | 0.57 | 0.30 | 96 | 1013.8 |
| 20260501174547 | 55 | 43 | 7.0 | 13.0 | 0.03 | 0.80 | 0.30 | 97 | 1014.2 |
| 20260501173040 | 55 | 27 | 6.0 | 15.0 | 0.03 | 0.79 | 0.29 | 97 | 1014.7 |
| 20260501171537 | 54 | 22 | 6.0 | 12.0 | 0.06 | 0.79 | 0.29 | 97 | 1015.0 |
| 20260501170043 | 54 | 43 | 5.0 | 12.0 | 0.08 | 0.78 | 0.28 | 97 | 1015.1 |
| 20260501164539 | 54 | 44 | 4.0 | 8.0 | 0.08 | 0.84 | 0.27 | 97 | 1015.6 |
| 20260501163041 | 54 | 74 | 6.0 | 11.0 | 0.06 | 0.82 | 0.25 | 97 | 1015.4 |
| 20260501161536 | 54 | 6 | 3.0 | 9.0 | 0.04 | 0.80 | 0.23 | 97 | 1015.0 |
| 20260501160036 | 54 | 44 | 3.0 | 11.0 | 0.00 | 0.76 | 0.19 | 97 | 1014.9 |
| 20260501154535 | 54 | 57 | 7.0 | 12.0 | 0.00 | 0.86 | 0.19 | 97 | 1014.4 |
| 20260501153032 | 54 | 80 | 7.0 | 13.0 | 0.00 | 0.86 | 0.19 | 97 | 1014.1 |